Temperature
25 23 22 23 23 24 25 25 25 26 27 25 24 23 22 22 21 21 20 20 19 19 19 19 19 19 18 18 18 18 18 18 18 18 18 18 18 18 17 17 17 17 17 17
23 22 24 25 26 26 26 25 25 26 27 25 23 22 22 21 21 21 20 20 19 19 18 19 18 18 18 18 18 18 18 18 18 18 18 18 18 18 17 17 17 17 17 17
23 24 26 27 27 26 26 25 26 26 26 23 23 21 21 21 21 21 20 20 20 19 19 19 19 18 18 18 18 18 18 18 18 18 18 18 17 17 17 17 17 17 17 17
24 25 26 26 26 27 25 27 27 27 24 20 22 20 20 20 20 20 20 20 20 20 19 19 19 18 18 18 18 18 18 18 18 18 18 18 18 18 18 18 17 17 17 16
24 25 26 26 27 28 26 27 26 25 22 20 20 20 19 19 20 20 20 20 20 20 19 19 19 19 18 18 18 18 18 18 18 18 18 18 18 18 18 17 17 17 16 16
25 26 27 27 28 28 27 26 23 20 19 19 19 19 19 19 19 20 20 20 20 20 19 19 19 19 18 18 18 18 18 18 18 18 18 18 18 18 17 17 17 17 17 16
24 25 27 27 26 26 26 23 21 21 19 19 19 19 19 20 20 20 20 20 20 20 19 19 19 18 18 18 18 18 18 18 18 18 18 18 18 17 18 17 17 17 17 17
22 23 25 26 26 25 25 23 21 21 20 19 19 19 19 21 21 21 21 21 20 20 20 20 20 19 19 18 18 18 18 18 18 18 18 17 17 17 17 17 17 17 17 17
22 23 26 27 28 26 25 24 22 20 20 19 19 19 20 20 21 21 21 20 20 20 20 20 20 20 19 19 19 19 19 19 18 18 18 17 17 17 17 17 17 17 17 17
23 23 25 26 27 26 25 23 20 20 20 20 19 19 19 20 20 20 20 20 20 20 20 20 20 20 20 20 19 19 19 19 19 18 18 18 18 17 17 17 17 17 17 17
23 22 23 24 25 24 24 23 20 19 19 19 19 19 20 19 19 19 20 20 20 20 20 20 20 20 20 20 19 19 19 19 18 18 18 18 18 18 17 17 17 17 17 17
21 20 20 22 23 25 24 22 20 20 20 18 18 19 21 20 19 19 20 21 21 21 20 20 20 20 20 20 19 19 19 19 19 18 18 18 18 18 17 17 17 17 17 17
21 19 20 20 21 22 22 22 20 18 18 18 18 19 20 19 20 20 21 21 21 21 20 20 20 20 20 20 20 19 19 19 19 19 18 18 18 18 18 18 17 17 17 17
21 18 19 20 20 20 21 22 21 19 18 18 19 20 20 19 19 19 20 21 21 20 20 20 20 20 20 20 20 20 19 19 19 19 19 18 18 18 18 18 17 17 17 17
18 18 19 20 21 21 21 22 21 20 19 19 19 19 20 19 19 19 20 20 20 20 20 20 20 20 20 20 20 20 20 19 19 19 19 19 19 18 18 18 17 17 17 17
16 17 18 19 21 21 21 22 22 21 21 20 20 19 18 18 18 19 19 19 19 19 19 20 20 20 20 20 20 20 20 19 19 19 19 19 19 18 18 18 17 17 17 17
15 16 17 18 19 20 20 20 21 21 21 20 19 18 17 17 17 17 18 18 18 19 19 19 19 19 20 20 20 20 19 19 19 19 19 19 18 18 18 18 17 17 17 17
15 15 15 16 18 18 19 19 21 20 20 19 19 18 17 17 17 17 17 18 17 18 19 19 19 19 19 20 20 19 19 19 19 18 18 18 18 18 18 17 17 17 17 17
14 15 15 15 16 17 19 19 19 18 18 18 18 17 17 16 16 15 16 17 17 17 18 18 18 19 19 19 19 19 18 18 18 18 18 17 17 17 17 17 17 17 16 16
14 14 15 15 16 17 18 19 19 18 17 18 17 17 17 17 15 14 15 16 16 16 16 17 17 18 18 17 17 17 17 17 17 17 17 16 16 16 16 16 16 16 16 16
14 14 15 15 16 16 17 18 18 18 17 17 17 17 17 16 15 14 15 15 15 15 16 16 16 16 16 16 17 17 16 16 16 16 16 16 16 16 16 15 15 15 15 15
14 14 14 15 15 16 17 17 17 16 16 16 16 16 16 15 14 14 14 14 14 15 15 15 15 15 15 15 16 15 15 15 15 15 15 15 15 15 15 15 15 14 14 14
14 14 14 14 15 15 15 15 16 16 16 16 15 16 15 14 14 14 14 14 14 14 14 14 14 14 14 14 15 14 14 14 14 14 14 14 14 14 14 14 14 14 13 13
14 14 13 14 14 14 15 15 16 16 16 16 15 15 15 14 14 13 13 13 13 13 14 14 14 14 13 13 13 13 13 13 13 13 13 13 13 13 13 13 13 13 13 13
14 13 13 13 14 14 14 15 15 15 15 15 15 15 15 14 14 13 13 13 13 13 13 13 13 13 12 12 12 12 12 13 13 12 12 12 12 12 12 12 12 12 12 12
14 13 13 14 14 13 14 14 15 15 14 14 14 14 14 14 13 13 13 13 13 12 12 12 12 12 12 12 11 11 11 12 12 12 12 11 11 12 12 12 12 11 11 11
Wind_Speed
5 3 7 10 10 11 10 11 12 10 4 4 5 4 5 6 6 8 9 9 9 9 8 8 9 13 14 13 13 13 12 10 9 7 7 7 6 5 5 5 9 10 9 10
4 9 14 12 12 12 12 11 10 7 3 2 2 1 2 4 5 7 9 9 10 9 8 9 9 11 13 13 13 13 13 11 10 8 6 5 5 4 4 4 6 9 9 9
11 11 10 11 13 12 12 10 8 6 1 6 4 3 2 3 3 4 6 8 10 13 14 12 11 11 12 13 15 14 13 11 10 8 6 5 4 4 3 4 4 5 9 9
9 13 13 14 14 12 11 11 7 4 2 3 3 2 6 3 2 2 5 7 9 11 12 12 13 13 13 13 13 12 12 11 10 9 9 10 7 6 5 5 4 4 7 8
9 8 9 12 15 11 9 8 3 0 4 3 4 1 7 3 3 4 4 7 9 11 13 13 13 15 14 13 13 12 11 10 9 10 10 10 6 5 4 5 6 5 4 6
12 11 9 11 14 10 7 3 5 6 6 3 2 1 6 4 5 5 3 6 9 11 12 12 12 12 11 11 11 12 12 10 10 10 10 9 9 8 8 7 6 5 3 3
10 12 11 9 10 9 3 2 4 6 4 3 3 2 8 8 7 6 5 5 8 11 13 13 13 13 13 13 13 12 13 11 10 10 10 9 9 9 10 9 8 6 4 4
8 10 9 7 8 8 6 6 6 5 5 3 2 4 8 8 7 3 3 5 8 9 12 14 14 14 14 15 14 14 13 11 11 11 10 9 9 7 7 8 8 8 6 6
9 9 8 7 6 6 5 4 7 7 3 2 3 5 8 5 4 1 3 6 8 9 12 14 14 14 14 14 14 14 14 12 12 12 10 9 9 9 8 8 8 7 6 7
9 7 8 6 2 2 6 5 5 5 5 3 2 4 5 5 5 3 4 6 6 8 10 13 14 14 14 14 14 13 13 13 11 11 11 10 9 9 9 8 9 8 8 7
3 6 7 2 3 6 2 3 5 4 5 6 4 6 7 9 7 6 6 5 6 7 10 11 11 12 12 12 12 12 12 11 11 11 10 10 9 9 8 8 9 8 7 8
2 3 4 7 6 4 5 6 7 5 4 5 5 7 6 7 8 7 7 7 7 8 9 10 10 10 9 10 11 12 13 12 12 11 10 10 9 9 9 9 9 8 9 9
3 4 2 7 7 5 2 2 4 6 5 5 6 6 3 3 5 6 6 7 7 8 8 9 9 11 11 11 11 11 12 12 12 11 11 10 10 10 10 9 9 8 9 9
3 3 5 7 8 4 2 3 3 5 5 5 7 6 4 4 5 5 5 5 6 7 7 8 9 10 10 10 10 11 11 11 11 10 11 12 11 11 10 9 9 9 9 9
4 1 3 6 7 4 4 6 5 5 7 7 7 8 7 6 4 4 4 5 5 5 5 7 8 9 9 9 9 10 10 10 11 11 12 12 10 9 8 8 8 9 9 10
3 1 2 4 3 2 4 6 6 5 5 5 6 3 2 2 4 5 5 6 5 3 4 5 6 7 9 10 10 10 10 10 10 11 11 9 8 8 8 8 8 8 9 8
2 2 1 3 4 3 4 4 4 3 3 7 7 6 7 6 6 5 6 7 6 4 3 4 4 5 6 7 8 9 9 8 8 8 8 7 8 9 9 10 9 9 10 9
5 4 3 2 1 4 6 2 2 4 1 2 5 8 10 10 8 7 6 7 7 7 6 4 3 3 3 4 5 5 5 6 6 5 4 4 5 6 6 6 7 7 6 7
4 5 4 3 3 4 4 1 1 4 1 2 9 13 13 14 13 10 8 9 9 9 8 6 5 6 6 5 5 7 6 6 5 4 3 3 4 4 3 4 5 5 5 6
3 3 4 3 3 5 5 2 1 5 2 1 9 14 12 8 7 5 5 9 10 10 10 9 9 10 10 7 7 10 8 7 6 4 3 3 3 3 3 3 3 3 3 5
1 1 3 4 3 4 4 3 1 4 6 5 8 10 9 6 7 9 10 10 10 11 11 11 12 12 9 8 10 11 9 7 4 4 4 4 3 2 2 2 2 2 2 2
2 2 2 3 4 4 3 0 3 4 5 8 9 11 14 15 15 13 13 11 11 12 11 11 12 11 9 8 10 11 8 5 5 6 6 6 4 3 2 2 1 1 2 2
1 3 2 3 3 1 2 2 2 6 10 9 10 14 17 17 15 14 13 11 11 11 10 9 11 11 10 9 9 9 6 5 6 7 6 5 5 5 4 3 2 2 1 1
2 1 1 0 1 2 3 4 5 9 12 11 13 15 17 17 15 13 12 10 10 10 10 9 11 12 10 9 9 8 6 6 7 7 5 5 5 5 4 3 3 2 1 1
2 1 1 1 1 4 6 6 10 13 14 15 15 15 16 18 15 13 11 10 10 9 8 8 9 9 8 8 9 8 8 8 8 7 6 5 4 4 4 3 2 2 0 2
1 2 3 2 2 4 4 7 12 15 15 17 18 16 14 15 14 13 11 9 8 8 8 8 8 8 7 8 8 7 7 8 8 7 6 5 4 3 3 3 3 4 2 1
Wind_Direction
248 204 241 240 224 230 255 271 278 275 253 150 181 198 195 174 165 171 179 178 176 175 170 162 160 161 161 163 159 156 155 157 152 148 148 149 151 152 150 157 152 147 143 137
289 256 246 250 255 256 263 269 277 287 282 135 137 152 183 183 201 192 187 180 172 164 161 169 166 166 166 166 165 162 163 166 166 164 156 149 146 152 155 153 148 153 150 145
229 249 258 258 267 267 271 256 248 248 59 49 83 360 285 222 214 199 193 187 175 174 173 174 173 174 173 172 169 171 169 169 169 159 140 131 112 108 120 141 150 161 154 150
242 253 258 266 270 263 269 257 240 237 84 8 41 259 280 268 295 214 193 188 181 180 177 177 176 175 180 179 171 168 167 168 168 160 158 157 156 160 172 167 164 160 154 149
236 243 250 258 263 265 257 263 260 161 110 68 14 85 291 327 301 270 221 192 184 183 178 176 177 178 178 174 171 170 168 169 168 168 166 162 159 161 152 149 154 157 152 155
242 253 247 252 267 266 263 300 31 47 72 50 288 162 282 264 256 256 244 204 186 182 177 175 175 169 171 171 171 169 170 173 172 171 168 166 166 161 154 160 167 169 162 162
264 267 261 257 276 294 313 75 11 350 6 254 248 206 255 253 259 238 235 210 186 177 175 174 173 172 173 174 174 173 173 176 176 174 175 175 174 169 170 172 176 174 173 181
227 267 254 240 228 235 252 161 172 216 230 241 274 244 261 272 280 253 199 179 171 173 177 178 179 178 178 179 177 176 179 179 178 179 179 179 178 177 179 180 178 183 187 191
203 240 249 237 232 197 232 229 180 151 140 135 256 280 299 299 318 263 156 157 174 182 182 183 181 180 180 181 183 184 183 182 183 183 179 182 180 180 180 182 181 185 190 192
186 237 264 255 287 290 183 172 99 124 160 194 240 256 246 263 264 251 173 172 179 188 189 186 184 184 185 186 186 185 185 186 185 183 184 189 185 183 182 181 186 190 192 190
173 208 277 317 216 234 233 123 128 132 153 156 204 253 227 216 215 218 204 184 181 194 191 186 185 186 184 184 184 187 187 184 185 185 185 184 185 185 181 186 191 191 190 185
353 152 255 261 260 232 189 180 153 158 205 161 172 251 255 210 209 204 195 195 190 191 181 175 176 176 177 181 185 189 187 186 188 186 184 187 185 184 186 192 195 189 187 185
19 87 13 336 336 3 53 150 145 138 135 161 174 244 262 226 203 201 190 189 183 179 177 175 173 176 180 182 186 186 188 190 188 184 186 191 191 191 196 198 195 189 186 185
74 118 172 215 235 242 273 270 165 130 149 189 201 204 250 248 209 190 189 187 168 163 169 174 177 179 180 180 181 183 186 188 186 186 190 197 200 201 202 199 196 194 190 188
62 129 245 251 246 224 245 245 206 183 181 178 203 192 214 216 196 187 174 159 135 140 149 164 175 180 177 176 181 184 189 189 188 188 197 203 203 202 201 200 202 199 196 197
61 111 334 308 304 309 287 259 224 199 180 172 162 195 177 153 105 82 107 124 117 122 140 147 155 166 174 178 184 186 188 189 185 191 199 199 195 198 202 204 206 204 203 201
149 129 69 272 299 349 277 257 232 198 182 163 180 188 144 119 110 110 97 87 93 97 121 132 146 167 178 182 183 186 189 185 181 189 194 197 195 200 207 208 205 210 210 203
167 148 163 215 351 235 244 281 124 129 103 134 138 144 141 126 104 78 78 90 80 70 77 81 93 122 133 138 142 144 145 149 156 169 175 176 181 190 194 195 203 208 206 200
164 154 152 164 211 250 269 304 129 123 64 126 135 135 131 118 87 57 44 73 82 77 72 66 69 83 82 89 104 103 101 112 125 137 157 167 161 165 183 204 210 207 200 202
63 113 145 167 195 223 237 273 201 113 87 180 145 147 147 130 109 104 75 77 76 72 70 66 62 65 66 65 82 86 84 83 86 96 120 127 134 154 181 207 211 203 190 200
21 67 180 182 208 251 264 288 41 145 191 169 145 143 134 114 119 123 105 87 80 77 72 72 70 66 60 65 82 82 75 71 72 80 81 83 95 128 164 187 194 172 167 173
220 213 202 175 192 238 302 356 170 175 133 130 122 115 106 106 108 104 97 88 82 79 72 71 73 66 53 58 79 79 69 54 56 63 65 62 58 58 67 81 87 126 152 161
229 213 196 194 214 290 21 74 108 120 115 117 123 119 117 111 107 103 96 91 85 82 77 72 75 69 55 49 62 70 53 54 63 61 58 57 55 50 54 68 64 52 98 157
288 257 172 199 55 50 54 70 85 102 107 112 119 120 116 111 109 104 99 94 87 80 78 76 76 71 58 48 52 53 43 53 64 60 47 44 49 41 37 48 61 75 75 96
241 218 131 133 113 58 53 75 94 95 99 103 105 107 111 110 107 105 100 94 90 86 79 78 80 76 65 53 49 44 45 53 57 52 45 40 39 42 38 32 35 55 72 148
268 188 171 196 188 126 106 98 103 100 103 110 108 102 100 106 107 104 98 94 92 88 81 78 75 74 66 60 51 40 43 53 55 46 37 35 32 31 35 34 19 16 16 17
Height
1490 1496 1500 1495 1492 1493 1493 1494 1492 1481 1471 1476 1482 1484 1482 1481 1482 1483 1485 1486 1488 1489 1492 1494 1496 1497 1500 1503 1508 1512 1516 1521 1526 1529 1532 1535 1538 1541 1543 1545 1547 1548 1550 1551
1494 1496 1486 1484 1484 1486 1488 1492 1488 1479 1470 1476 1483 1486 1482 1482 1482 1481 1482 1483 1485 1489 1491 1493 1495 1497 1499 1501 1506 1511 1516 1520 1524 1527 1531 1534 1537 1540 1542 1544 1546 1547 1549 1550
1494 1486 1480 1481 1481 1484 1484 1486 1483 1480 1475 1479 1485 1492 1486 1481 1481 1480 1481 1482 1483 1486 1488 1490 1493 1496 1498 1501 1505 1510 1514 1518 1522 1527 1530 1534 1536 1538 1540 1542 1544 1546 1548 1549
1485 1478 1478 1479 1479 1479 1486 1472 1471 1473 1485 1499 1494 1507 1491 1482 1480 1479 1479 1480 1482 1485 1487 1488 1490 1493 1497 1499 1503 1508 1513 1517 1521 1525 1528 1531 1533 1535 1538 1540 1543 1545 1546 1548
1481 1474 1475 1477 1473 1470 1474 1466 1468 1474 1486 1501 1500 1505 1498 1485 1485 1480 1478 1479 1480 1483 1485 1487 1488 1491 1495 1499 1503 1507 1512 1516 1520 1523 1526 1529 1532 1535 1537 1539 1541 1543 1545 1547
1471 1466 1468 1468 1463 1463 1464 1468 1476 1485 1496 1513 1506 1508 1503 1490 1483 1478 1476 1477 1478 1481 1484 1486 1489 1491 1495 1499 1503 1507 1510 1514 1518 1521 1524 1527 1530 1533 1535 1538 1540 1542 1544 1545
1475 1467 1461 1461 1465 1462 1465 1483 1503 1508 1517 1517 1504 1505 1499 1479 1474 1473 1472 1473 1475 1478 1482 1485 1488 1490 1494 1498 1501 1505 1509 1512 1516 1519 1522 1525 1528 1531 1533 1536 1538 1540 1542 1544
1484 1481 1461 1456 1460 1466 1466 1477 1503 1515 1518 1515 1506 1504 1488 1472 1469 1469 1469 1471 1474 1477 1480 1483 1485 1488 1492 1496 1499 1503 1507 1510 1513 1516 1519 1523 1526 1529 1532 1534 1537 1538 1540 1542
1477 1474 1452 1449 1449 1455 1465 1471 1473 1494 1503 1514 1509 1497 1481 1470 1469 1469 1470 1472 1474 1476 1478 1481 1484 1487 1491 1494 1497 1501 1505 1508 1511 1514 1518 1521 1524 1527 1530 1532 1535 1537 1539 1541
1460 1469 1455 1448 1447 1449 1454 1462 1480 1494 1509 1516 1510 1502 1493 1478 1473 1471 1471 1472 1472 1475 1478 1480 1482 1486 1489 1493 1496 1499 1502 1506 1509 1512 1515 1518 1522 1525 1528 1530 1532 1535 1537 1539
1456 1467 1461 1454 1456 1458 1458 1464 1474 1488 1493 1508 1517 1504 1473 1472 1470 1469 1469 1469 1471 1474 1477 1479 1482 1485 1488 1492 1495 1498 1501 1504 1507 1510 1513 1516 1519 1522 1525 1527 1530 1532 1534 1536
1456 1465 1471 1461 1449 1444 1450 1458 1469 1486 1492 1494 1502 1496 1463 1464 1465 1466 1467 1468 1470 1472 1475 1477 1480 1484 1487 1490 1493 1496 1499 1501 1504 1507 1510 1513 1516 1519 1522 1524 1527 1529 1531 1533
1457 1467 1480 1475 1466 1455 1456 1457 1461 1471 1482 1492 1499 1489 1462 1462 1463 1464 1465 1467 1468 1470 1473 1476 1479 1481 1484 1487 1490 1493 1496 1499 1502 1505 1508 1510 1513 1515 1518 1521 1523 1526 1528 1530
1454 1466 1476 1482 1474 1464 1463 1459 1460 1469 1484 1487 1482 1476 1465 1462 1462 1463 1465 1466 1467 1469 1471 1474 1476 1479 1481 1484 1487 1490 1493 1496 1499 1502 1505 1507 1510 1512 1515 1518 1520 1522 1524 1526
1457 1468 1465 1462 1456 1455 1456 1456 1456 1462 1466 1473 1471 1468 1462 1460 1460 1461 1462 1464 1465 1467 1469 1471 1474 1476 1479 1481 1485 1487 1490 1493 1496 1499 1501 1504 1507 1510 1513 1515 1517 1520 1521 1523
1461 1466 1464 1462 1454 1453 1455 1452 1450 1453 1456 1461 1462 1465 1459 1460 1460 1460 1461 1464 1465 1467 1469 1470 1472 1475 1477 1479 1482 1485 1487 1490 1493 1495 1498 1500 1504 1506 1509 1511 1513 1515 1517 1519
1463 1466 1469 1470 1459 1456 1462 1453 1451 1451 1449 1453 1461 1460 1458 1461 1462 1463 1463 1465 1466 1468 1468 1470 1472 1473 1475 1478 1480 1482 1485 1488 1490 1492 1494 1497 1500 1502 1504 1507 1509 1511 1512 1513
1461 1465 1470 1470 1467 1473 1459 1446 1445 1447 1448 1448 1450 1453 1456 1460 1463 1465 1467 1467 1468 1468 1469 1470 1471 1473 1475 1477 1479 1481 1483 1486 1488 1490 1493 1495 1497 1499 1501 1503 1504 1506 1507 1508
1454 1460 1468 1472 1474 1466 1454 1447 1447 1451 1453 1449 1450 1454 1459 1461 1464 1470 1471 1470 1470 1470 1470 1470 1471 1472 1474 1476 1478 1480 1481 1484 1486 1489 1492 1493 1494 1496 1497 1498 1499 1501 1502 1503
1454 1457 1465 1469 1472 1470 1455 1445 1444 1447 1457 1451 1450 1453 1457 1459 1468 1475 1474 1474 1473 1472 1472 1472 1472 1473 1475 1477 1479 1480 1481 1483 1485 1487 1489 1491 1492 1493 1494 1495 1495 1496 1497 1499
1461 1462 1463 1465 1467 1459 1448 1443 1444 1457 1456 1450 1451 1453 1455 1459 1466 1472 1473 1475 1475 1475 1475 1475 1475 1475 1476 1478 1479 1480 1481 1483 1485 1486 1487 1488 1489 1490 1491 1492 1493 1493 1493 1495
1462 1463 1462 1462 1465 1462 1446 1444 1447 1448 1446 1449 1452 1455 1458 1461 1467 1471 1474 1476 1477 1477 1478 1478 1477 1478 1480 1480 1481 1480 1482 1484 1485 1486 1485 1486 1487 1488 1489 1489 1490 1490 1491 1492
1458 1457 1456 1457 1458 1450 1446 1445 1445 1444 1446 1450 1454 1457 1461 1464 1469 1473 1476 1478 1480 1480 1481 1481 1481 1482 1483 1483 1483 1483 1484 1485 1486 1486 1486 1486 1487 1487 1488 1488 1488 1488 1489 1489
1454 1452 1454 1454 1452 1449 1448 1447 1446 1447 1449 1452 1456 1459 1463 1466 1472 1476 1479 1482 1483 1483 1484 1485 1485 1485 1486 1487 1487 1487 1487 1487 1487 1486 1487 1487 1487 1487 1487 1488 1488 1488 1488 1487
1453 1453 1453 1453 1451 1450 1450 1449 1450 1451 1454 1458 1461 1464 1467 1470 1476 1480 1482 1484 1486 1487 1488 1488 1488 1489 1490 1490 1490 1490 1489 1489 1488 1487 1487 1488 1488 1488 1487 1487 1487 1487 1487 1487
1452 1453 1454 1454 1451 1452 1454 1453 1454 1455 1459 1462 1465 1470 1474 1476 1479 1483 1485 1488 1489 1490 1491 1491 1492 1492 1493 1493 1493 1492 1492 1491 1490 1489 1489 1489 1489 1488 1488 1487 1487 1486 1486 1485